Regional Weather Roundup
Issued by NWS Sioux Falls, SD

Home | Current Version | Previous Version | Text Only | Print | Product List | Glossary On
Versions: 1 2 3 4 5 6 7 8 9 10 11 12 13 14 15 16 17 18 19 20 21 22 23 24 25 26 27 28 29 30 31 32 33 34 35 36 37 38 39 40 41 42 43 44 45 46 47 48 49 50
000
ASUS43 KFSD 182110
RWRFSD

WEATHER ROUNDUP FOR SE SOUTH DAKOTA/SW MINNESOTA/NW IOWA
NATIONAL WEATHER SERVICE SIOUX FALLS SD
400 PM CDT WED MAY 18 2022

NOTE: "FAIR" INDICATES FEW OR NO CLOUDS BELOW 12,000 FEET WITH NO
SIGNIFICANT WEATHER AND OR OBSTRUCTIONS TO VISIBILITY.


SDZ038>040-050-052>070-182200-
SOUTHEAST SOUTH DAKOTA

CITY           SKY/WX    TMP DP  RH WIND       PRES   REMARKS
BROOKINGS      PTSUNNY   76  51  41 W15       29.80F
CHAMBERLAIN    SUNNY     77  49  37 NW15G21   29.85F
HURON          MOSUNNY   77  48  35 W16G28    29.80F
MITCHELL       MOSUNNY   77  48  35 NW15G25   29.81F
SIOUX FALLS    PTSUNNY   81  48  31 NW16      29.80F
WINNER         SUNNY     79  50  36 N9        29.86F
YANKTON        MOSUNNY   83  49  30 W9        29.80F
$$

MNZ071-072-080-081-089-090-097-098-182200-
SOUTHWEST MINNESOTA

CITY           SKY/WX    TMP DP  RH WIND       PRES   REMARKS
FAIRMONT       MOSUNNY   76  54  46 NW13      29.77F
JACKSON        MOSUNNY   79  46  31 NW17G23   29.79F
LUVERNE        MOSUNNY   79  32  18 NW16G23   29.79F
MARSHALL       PTSUNNY   75  50  41 W18       29.76F
MONTEVIDEO     MOSUNNY   73  41  31 N14G20    29.74F
PIPESTONE      MOSUNNY   75  45  33 N17       29.80F
REDWOOD FALLS  PTSUNNY   72  60  66 W7        29.75F
TRACY          PTSUNNY   74  47  37 W9G18     29.78F
WINDOM         PTSUNNY   75  52  43 W20       29.78F
WORTHINGTON    MOSUNNY   77  45  32 W23       29.79F
$$

IAZ001>003-012>014-020>022-031-032-NEZ013-014-SDZ071-182200-
NORTHWEST IOWA

CITY           SKY/WX    TMP DP  RH WIND       PRES   REMARKS
DENISON        SUNNY     79  55  44 W10G18    29.82F
ESTHERVILLE    MOSUNNY   81  50  33 W13G18    29.77F
LE MARS        MOSUNNY   84  48  28 W9G17     29.78F
MAURICE        FAIR      82  50  32 NW12G17   29.78F
SHELDON        MOSUNNY   84  37  18 W18       29.76F
SIOUX CITY     SUNNY     83  56  39 NW10      29.80F
SPENCER        SUNNY     84  48  28 NW18G24   29.78F
STORM LAKE     SUNNY     81  46  30 NW20G26   29.80F
$$

ABBREVIATIONS USED IN REMARKS
   TC - TEMPERATURE IN CELSIUS
  WCI - WIND CHILL INDEX
   HX - HEAT INDEX
  VSB - VISIBILITY




USA.gov is the U.S. government's official web portal to all federal, state and local government web resources and services.